STARLINK-2512 (48319 NORAD) Tracking and Keplerian Element Data

This shows tracking and keplerian element data for the satellite.

Feedback or suggestion? Click here.




ElementValue
Catalog48319
NameSTARLINK-2512
Epoch Orbit194
Epoch Day173.83334491
Epoch Year2021
RAAN266.86
Inclination53.0537
Eccentricity0.0001316
Argument of Perigee88.2687
Mean Anonmoly6.4352
Mean Motion15.06296217
Decay Rate0.00143694
L11 48319U 21036AV 21173.83334491 .00143694 00000-0 94976-2 0 9990
L22 48319 53.0537 266.8600 0001316 88.2687 6.4352 15.06296217 1941

Live tracking and technical data element details for STARLINK-2512 (NORAD 48319). STARLINK-2512 can be tracked NOW for your location showing map with azimuth and elevation plus other details from your city location.

Track the satellite on the map from your city or location and see movement details for azimuth, elevation, latitude, longitude, range, height, and movement on the map or in text.







IsCatalogInMostPopularTable: catalog: 48319, numindb: 23
Update: records affected: 1



GetName: 48319 STARLINK-2512

Hit Count: updated at: Thu, 24 Jun 2021 02:19:48 GMT